Regional Weather Roundup
Issued by NWS

Home | Current Version | Previous Version | Graphics & Text | Print | Product List | Glossary On
Versions: 1 2 3 4 5 6 7 8 9 10 11 12 13 14 15 16 17 18 19 20 21 22 23 24 25 26 27 28 29 30 31 32 33 34 35 36 37 38 39 40 41 42 43 44 45 46 47 48 49 50
000
ASUS43 KOAX 050202
RWRNE

WEATHER ROUNDUP FOR NEBRASKA
NATIONAL WEATHER SERVICE OMAHA NE
800 PM CST SUN DEC 04 2016

NOTES: SATELLITE DATA IS BEING USED TO AUGMENT CLOUD COVER ABOVE
       12000 FEET.
       "FAIR" INDICATES FEW OR NO CLOUDS BELOW 12,000 FEET WITH NO
       SIGNIFICANT WEATHER AND/OR OBSTRUCTIONS TO VISIBILITY.

  * THESE STATIONS DO NOT REPORT WEATHER SUCH AS RAIN...SNOW OR FOG.

NEZ001>004-019>022-054>056-050300-
NEBRASKA PANHANDLE

CITY           SKY/WX    TMP DP  RH WIND       PRES   REMARKS
SCOTTSBLUFF    CLOUDY    39  19  44 W7        29.69F WCI  34
ALLIANCE       CLOUDY    26  14  60 S10       29.69F WCI  16
CHADRON        CLOUDY    38  17  42 S9        29.65F WCI  31
SIDNEY         CLOUDY    34  13  41 SW10      29.74F WCI  26
$$

NEZ057>060-069>072-079>082-050300-
SOUTHWEST NEBRASKA

CITY           SKY/WX    TMP DP  RH WIND       PRES   REMARKS
NORTH PLATTE   CLEAR     37  15  40 S9        29.78F WCI  30
IMPERIAL       CLEAR     38  12  34 S15       29.78F WCI  29
LEXINGTON      CLEAR     32  20  60 S9        29.83F WCI  24
MCCOOK         CLEAR     35  15  44 S8        29.83F WCI  29
OGALLALA       CLEAR     37  14  38 CALM      29.75S
$$

NEZ005>010-023>029-035>040-094-050300-
NORTH CENTRAL NEBRASKA

CITY           SKY/WX    TMP DP  RH WIND       PRES   REMARKS
VALENTINE      CLOUDY    37  15  40 S6        29.72F WCI  32
AINSWORTH      CLEAR     29  18  63 S9        29.74F WCI  20
BROKEN BOW     CLEAR     26  18  71 CALM      29.80F
O`NEILL        CLEAR     34  22  62 S5        29.79F WCI  30
ORD            CLEAR     28  18  66 S10       29.80F WCI  19
THEDFORD       CLEAR     37  18  46 S8        29.75F WCI  30
$$

NEZ041-046>049-061>064-073>077-083>087-050300-
SOUTH CENTRAL NEBRASKA

CITY           SKY/WX    TMP DP  RH WIND       PRES   REMARKS
GRAND ISLAND   CLEAR     37  32  82 S12       29.86F WCI  29
AURORA         CLEAR     36  32  88 S12       29.88S WCI  27
HASTINGS       CLEAR     36  31  82 S8        29.89S WCI  30
HEBRON         CLEAR     35  32  88 S8        29.92F WCI  28
HOLDREGE       CLEAR     37  20  50 S10       29.86F WCI  30
KEARNEY *      CLEAR     32  19  59 S8        29.86S WCI  25
YORK           CLEAR     34  32  93 SW9       29.89S WCI  26
$$

NEZ011>018-030>034-042>045-050300-
NORTHEAST NEBRASKA

CITY           SKY/WX    TMP DP  RH WIND       PRES   REMARKS
NORFOLK        CLEAR     36  27  69 S14       29.83S WCI  27
ALBION         PTCLDY    34  25  68 SE3       29.83S
BLAIR          CLEAR     32  31  95 S9        29.88F WCI  25
FREMONT        CLEAR     33  32  94 S9        29.89S WCI  26
TEKAMAH        CLEAR     33  30  88 S10       29.89S WCI  25
WAYNE          CLEAR     30  28  93 S9        29.84R WCI  22
$$

NEZ050>053-065>068-078-088>093-050300-
SOUTHEAST NEBRASKA

CITY           SKY/WX    TMP DP  RH WIND       PRES   REMARKS
LINCOLN        CLEAR     34  30  85 CALM      29.92F
OMAHA EPPLEY   CLEAR     32  27  81 SE7       29.91F WCI  26
BEATRICE       CLEAR     34  32  91 S8        29.93S WCI  28
FALLS CITY     CLEAR     36  33  89 S6        29.95F WCI  31
NEBRASKA CITY  CLEAR     35  33  94 SW10      29.92F WCI  27
PLATTSMOUTH    CLEAR     32  29  88 S6        29.91F WCI  26
$$

NEZ044-045-051>053-067-050300-
OMAHA AREA

CITY           SKY/WX    TMP DP  RH WIND       PRES   REMARKS
OMAHA EPPLEY   CLEAR     32  27  81 SE7       29.91F WCI  26
BLAIR          CLEAR     32  31  95 S9        29.88F WCI  25
FREMONT        CLEAR     33  32  94 S9        29.89S WCI  26
MILLARD        CLEAR     32  31  94 CALM      29.91F
OFFUTT AFB     CLEAR     31  31 100 SE5       29.91F WCI  26
PLATTSMOUTH    CLEAR     32  29  88 S6        29.91F WCI  26
WAHOO          FAIR      30  28  94 SW7       29.89F WCI  23
$$




USA.gov is the U.S. government's official web portal to all federal, state and local government web resources and services.